AirNav   Everest Fuels
 
 967 users online  

43D Odessa Municipal Airport
Odessa, Washington, USA

GOING TO ODESSA?


FAA INFORMATION EFFECTIVE 10 SEPTEMBER 2020

Location

FAA Identifier: 43D
Lat/Long: 47-20-51.3000N 118-40-38.0000W
47-20.855000N 118-40.633333W
47.3475833,-118.6772222
(estimated)
Elevation: 1737.6 ft. / 530 m (estimated)
Variation: 19E (1985)
From city: 1 mile N of ODESSA, WA
Time zone: UTC -7 (UTC -8 during Standard Time)
Zip code: 99159

Airport Operations

Airport use: Open to the public
Activation date: 04/1948
Control tower: no
ARTCC: SEATTLE CENTER
FSS: SEATTLE FLIGHT SERVICE STATION
NOTAMs facility: SEA (NOTAM-D service available)
Attendance: UNATNDD
Wind indicator: lighted
Segmented circle: no
Lights: SS-SR
Beacon: white-green (lighted land airport)
Operates sunset to sunrise.

Airport Communications

CTAF: 122.9

Nearby radio navigation aids

VOR radial/distance  VOR name  Freq  Var
MWHr055/27.3MOSES LAKE VOR/DME115.0018E
EPHr072/30.4EPHRATA VORTAC112.6021E

Airport Services

Parking: tiedowns
Airframe service: NONE
Powerplant service: NONE
Bottled oxygen: NONE
Bulk oxygen: NONE

Runway Information

Runway 2/20

Dimensions: 3124 x 58 ft. / 952 x 18 m
Surface: asphalt, in good condition
Weight bearing capacity: 
Single wheel: 5.0
Runway edge lights: medium intensity
RUNWAY 2  RUNWAY 20
Latitude: 47-20.658547N47-21.049667N
Longitude: 118-40.879125W118-40.388792W
Elevation: 1723.5 ft.1737.2 ft.
Traffic pattern: leftleft
Runway heading: 022 magnetic, 041 true202 magnetic, 221 true
Markings: basic, in good conditionbasic, in good condition
Visual slope indicator: 2-light PAPI on left (3.50 degrees glide path)2-light PAPI on left (3.00 degrees glide path)
Touchdown point: yes, no lightsyes, no lights

Airport Ownership and Management from official FAA records

Ownership: Publicly-owned
Owner: CITY OF ODESSA
PO BOX 218
ODESSA, WA 99159
Phone 509-982-2401
Manager: STAN DAMMEL
P.O. BOX 186
ODESSA, WA 99159
Phone 509-660-3024

Airport Operational Statistics

Aircraft based on the field: 13
Single engine airplanes: 11
Multi engine airplanes: 1
Ultralights: 1
    
Aircraft operations: avg 25/day *
66% local general aviation
33% transient general aviation
<1% military
* for 12-month period ending 31 December 2018

Additional Remarks

DEER INVOF OF RUNWAY.
FOR CD CTC GRANT COUNTY APCH AT 509-762-2842, WHEN APCH CLSD CTC SEATTLE ARTCC AT 253-351-3694.

Instrument Procedures

There are no published instrument procedures at 43D.

Some nearby airports with instrument procedures:

2S8 - Wilbur Airport (24 nm N)
KMWH - Grant County International Airport (27 nm W)
KEPH - Ephrata Municipal Airport (34 nm W)
KSKA - Fairchild Air Force Base (44 nm E)
KGEG - Spokane International Airport (49 nm E)
 
Loc | Ops | Rwys | IFR | FBO | Links
Com | Nav | Svcs | Stats | Notes
Area around 43D (Odessa Municipal Airport)
 
Road maps at: MapQuest Bing Google
 
Aerial photo
WARNING: Photo may not be current or correct
Aerial photo of 43D (Odessa Municipal Airport)
Taken in March 2007

Do you have a better or more recent aerial photo of Odessa Municipal Airport that you would like to share? If so, please send us your photo.

 
Sectional chart

 
Airport distance calculator
Flying to Odessa Municipal Airport? Find the distance to fly.

From to 43D

Sunrise and sunset
Times for 23-Sep-2020
 Local
(UTC-7)
 Zulu
(UTC)
Morning civil twilight06:1513:15
Sunrise06:4513:45
Sunset18:4801:48
Evening civil twilight19:1902:19

Current date and time
Zulu (UTC)  24-Sep-2020 03:21:59
Local (UTC-7)  23-Sep-2020 20:21:59
 
METAR
KMWH 
27nm W 
240252Z 00000KT 6SM -RA BKN075 OVC090 17/14 A2976 RMK AO2 RAB0158 SLP075 P0008 60009 T01670139 53001
KEPH 
34nm W 
240253Z AUTO 17004KT 9SM -RA FEW065 OVC095 15/13 A2973 RMK AO2 SLP067 P0007 60009 T01500133 58008
KSKA 
45nm E 
240258Z 01003KT 10SM BKN095 18/05 A2976 RMK AO2A RAB19E33 SLP073 P0000 60000 T01810046 57027 $
KGEG 
49nm E 
240253Z 05004KT 10SM BKN090 OVC150 19/07 A2975 RMK AO2 RAB23E37 SLP065 P0000 60000 T01890067 56030
TAF
KMWH 
27nm W 
240106Z 2401/2424 27005KT 6SM -RA BKN080 OVC100 FM240300 22014KT 6SM -RA BR BKN060 OVC090 FM240600 22012KT P6SM SCT015 BKN070 FM241600 22015G20KT P6SM BKN250 FM242000 22020G30KT P6SM BKN250
NOTAMs
Click for the latest NOTAMs
NOTAMs are issued by the DoD/FAA and will open in a separate window not controlled by AirNav.

 

 
 

Would you like to see your business listed on this page?

 If your business provides an interesting product or service to pilots, flight crews, aircraft, or users of the Odessa Municipal Airport, you should consider listing it here.  To start the listing process, click on the button below
 
Add a business
 

Other Pages about Odessa Municipal Airport

Update a link
 
Copyright © AirNav, LLC. All rights reserved. Privacy Policy  Contact